Regional Weather Roundup
Issued by NWS

Home | Current Version | Previous Version | Graphics & Text | Print | Product List | Glossary On
Versions: 1 2 3 4 5 6 7 8 9 10 11 12 13 14 15 16 17 18 19 20 21 22 23 24 25 26 27 28 29 30 31 32 33 34 35 36 37 38 39 40 41 42 43 44 45 46 47 48 49 50
000
ASUS45 KABQ 260201
RWRNM
WEATHER ROUNDUP FOR NEW MEXICO
NATIONAL WEATHER SERVICE ALBUQUERQUE NM
800 PM MDT FRI JUL 25 2014

NOTE: "FAIR" MEANS FEW OR NO CLOUDS BELOW 12,000 FEET AGL WITH NO
       SIGNIFICANT WEATHER OR OBSTRUCTIONS TO VISION.

      THIS PRODUCT IS RELEASED AS TWO VERSIONS.  ONE VERSION NEAR
      THE TOP OF THE HOUR CONTAINING PRELIMINARY DATA FROM ALBUQUERQUE
      AND OTHER STATIONS.  A FINAL VERSION WITH ADDITIONAL DATA IS
      ISSUED ABOUT 10 MINUTES AFTER THE HOUR.

NMZ501-503-504-510>518-260300-
NORTHWEST PLATEAU/NORTHCENTRAL MOUNTAINS

CITY           SKY/WX    TMP DP  RH WIND       PRES   REMARKS
FARMINGTON     CLEAR     89  43  20 W9        30.07S
LOS ALAMOS     CLEAR     82  44  26 SW5       30.23S
SANTA FE       CLEAR     86  46  24 CALM      30.14R
TAOS           PTCLDY    82  43  24 NE5       30.22S
ANGEL FIRE     FAIR      71  47  41 N3        30.35R

$$
NMZ402-403-502-505>509-260300-
WESTCENTRAL MOUNTAINS/SOUTHWEST MOUNTAINS

CITY           SKY/WX    TMP DP  RH WIND       PRES   REMARKS
GALLUP         PTCLDY    87  35  15 W8        30.17S
GRANTS         PTCLDY    77  43  29 W5        30.19R

$$
NMZ407-409-411-412-260300-
SOUTHERN DESERTS

CITY           SKY/WX    TMP DP  RH WIND       PRES   REMARKS
LORDSBURG      FAIR      93  41  16 SE3       29.99S
DEMING         CLEAR     94  42  16 S5        30.00S
LAS CRUCES     CLEAR     93  41  16 SE5       30.03R
HOLLOMAN AFB   CLEAR     95  40  14 N7        29.97R
T OR C         CLEAR     94  37  13 S7        30.03S

$$
NMZ519>523-260300-
CENTRAL VALLEYS/CENTRAL HIGHLANDS

CITY           SKY/WX    TMP DP  RH WIND       PRES   REMARKS
ALBUQUERQUE    PTCLDY    93  42  17 S8        30.06S
DOUBLE EAGLE   PTCLDY    86  41  20 SW6       30.11S
CLINES CORNERS CLEAR     81  33  17 SW10      30.21S
BELEN          FAIR      90  44  20 SE5       30.05S
SOCORRO        NOT AVBL

$$
NMZ524>526-539-540-260300-
SOUTHCENTRAL MOUNTAINS

CITY           SKY/WX    TMP DP  RH WIND       PRES   REMARKS
RUIDOSO        NOT AVBL

$$
NMZ527>531-260300-
NORTHEAST HIGHLANDS/NORTHEAST PLAINS

CITY           SKY/WX    TMP DP  RH WIND       PRES   REMARKS
LAS VEGAS      CLEAR     80  46  30 W8        30.18R
RATON          CLOUDY    75  54  47 N10       30.14R
CLAYTON        PTCLDY    87  40  19 SE10      29.99R

$$
NMZ532>537-260300-
EASTCENTRAL PLAINS

CITY           SKY/WX    TMP DP  RH WIND       PRES   REMARKS
TUCUMCARI      CLEAR     95  44  17 S15G24    29.93R
CANNON AFB     CLEAR     88  51  28 S9        30.02R
CLOVIS AIRPORT NOT AVBL

$$
NMZ028-029-538-260300-
SOUTHEAST PLAINS

CITY           SKY/WX    TMP DP  RH WIND       PRES   REMARKS
ROSWELL        CLEAR     94  46  19 SE10      29.95F
ARTESIA        CLEAR     91  48  22 SE8       29.96R
CARLSBAD       MOCLDY    96  39  13 SE10      29.95R
HOBBS          CLEAR     91  41  17 SE9       30.02R


$$


USA.gov is the U.S. government's official web portal to all federal, state and local government web resources and services.